IRIDIUM 33 DEB

Satellite information

Favourite Embed

Satellite Type and Status

DEBRISIN ORBIT

Key statistics

Satellite IRIDIUM 33 DEB at a glance.

Uptime

10268

Days in orbit

Revolutions

≈ 15.3

Per day

Orbit

LEO

Low Earth Orbit

Inclination

86.2

Latest

Satellite identification and parameters

Extended collection of information and parameters for IRIDIUM 33 DEB.

Object identification

Identified? True

Debris? True

Object name: IRIDIUM 33 DEB

International designator: 1997-051TU

Object number (NORAD): 35911

Object ID (CCSDS): 35911

Country: UNITED STATES OF AMERICA (US)

Current information (Y/N): Y

RCS size: SMALL

Orbital parameters

Period: 94.263 minutes

Inclination: 86.1998 deg

SMA: 6861.011 km

Apoapsis: 502.838 km

Periapsis: 462.913 km

RAAN: 11.8968 deg

Eccentricy: 0.0029096

Argument of periapsis: 280.138 deg

Mean anomaly: 79.6585 deg

Mean motion: 15.27638588 rev/day

Mean motion (dot): 0.00864298 rev/day2

B* drag term: 0.029217 1/REarth

Two-line elements (TLE)

Creation date: Oct. 24, 2025, 10:46 a.m.

Reference frame: TEME

Reference center: EARTH

Epoch: Sept. 30, 2025, 12:37 p.m. UTC

TLE line 0: 0 IRIDIUM 33 DEB

TLE line 1: 1 35911U 97051TU 25273.52595897 .00864298 00000-0 29217-1 0 9999

TLE line 2: 2 35911 86.1998 11.8968 0029096 280.1380 79.6585 15.27638588859930

Live tracking on map

Real-time ground track for satellite IRIDIUM 33 DEB.

In-orbit conjunctions

A list of the most updated potential collisions computed for object IRIDIUM 33 DEB.

Target Orbit TCA Probability of collision Miss distance Type
GSLV R/B LEO 2025-04-15 14:00:18 0.0003284567 66.0 (m) ROCKET BODY
FENGYUN 1C DEB SSO 2024-09-26 13:33:47 0.0001038087 833.0 (m) DEBRIS

Associated space launch

Iridium provides global mobile telecommunications services using a constellation of 66 low earth orbit satellites in a 86.4° inclined orbit. Although 77 satellites were originally envisioned for the system and spawned the name based on the 77th element in the periodic table, the system has been scaled back. Motorola's Satellite Communications Group designed and manufactured the Iridium satellites with Lockheed Martin providing the LM-700A spacecraft buses.

IRIDIUM 33 DEB was lifted into orbit during the mission ‘Proton-K/17S40 | Iridium 27 to 33’, on board a Proton-K/17S40 space rocket.

The launch took place on Sept. 14, 1997, 1:36 a.m. from 81/23 (81L).

For more information about the launch, click the button.

Launch to space Proton-K/17S40 | Iridium 27 to 33
Proton-K/17S40 | Iridium 27 to 33

Agency: N/A

Status: Launch Successful

Launch date: Sept. 14, 1997, 1:36 a.m. UTC

Rocket: Proton-K/17S40

Launch pad: 81/23 (81L)

Location: Baikonur Cosmodrome, Republic of Kazakhstan

...

Latest news about this satellite

There are no fresh news available about this satellite. Check back as we update our databases every day.


Newsletter sign-up

Weekly statistics, charts and insights to help you stay on top of the space industry.